STARLINK-4720, 53800

Orbit data source: Space-Track

STARLINK-4720, 53800 is a payload satellite owned by SpaceX/Seattle (US) in LEO that was launched on Sun, 11 Sep 2022 UTC via an FALCON 9 launch vehicle from the Air Force Eastern Test Range (AFETR). Payload-class satellites include a variety of spacecraft equipped with specific instruments for various scientific and technological missions. These include communications satellites like Starlink; space stations such as the ISS; scientific satellites like the Hubble; Earth observation satellites from companies like Planet Labs, Umbra, and HawkEye 360; GPS; miniature CubeSats for education and research; and military/defense satellites.

Loading next visibility...
Identifier
53800, 2022-111AD
Orbit
LEO
Last TLE update
11 hours ago
Origin
Manufacturer
SpaceX/Seattle
Mission
Operational Commercial Communications
Bus & Motor
STARLINK, Unknown motor
Mass
305 kg wet, ~290 kg dry
Launch date (UTC)
2022-09-11 (3 years ago)
Launch vehicle
FALCON 9
Launch site
Air Force Eastern Test Range (AFETR)
Object type
Payload
Rocket body
Debris
Shape & HBR
Box + 1 Pan, 8.86 m
Radar Cross Section
13.562 m², Large (>1 m²)

Expand to show TLE details & history

TLE from 11 hours ago
0 STARLINK-4720
1 53800U 22111AD  25182.74898961 -.00000173  00000-0  72088-5 0  9995
2 53800  53.2183 310.5820 0001183  93.2104 266.9023 15.08840749155938
Epoch: 2025-07-01T17:58Z
TLE epoch observation values (Epoch: 2025-07-01T17:58:32.702Z)
Latitude
-0.00006°
Longitude
120.90572°
Altitude
540.683 km
Speed
7.593 km/s
True Right ascension
20h 42m 19s
True Declination
0° 00' 00"
Sunlit
Object was in full shadow at epoch
Visualization orbit readout
Latitude
-15.27332°
Longitude
107.12554°
Altitude
544.18 km
Speed
7.59 km/s
Apparent Right ascension
22h 55m 30s
Apparent Declination
-50° 39' 29"
Sunlit
Object is in full shadow
Visualization observer readout
Local Sidereal Time
16:42:41
Azimuth
132.025° SE
Elevation
-31.564°
Doppler factor
1
Orbital elements
Apogee altitude
540.804 km
Perigee altitude
539.167 km
Semi-major axis
6,918.123 km
Eccentricity
0.00012
Inclination
53.2183°
RAAN
310.582°
Arg. of periapsis
93.2104°
True anomaly
Unknown
Mean anomaly
266.9023°
Eccentric anomaly
Unknown
Mean motion
3.77191 °/min
Orbital period
95.44 mins
BSTAR
0.0000072088
Loading maneuver chart data...
Loading SW <> Apogee altitude chart data...
Loading historical data...
Loading historical data...
Loading historical data...
Loading historical data...
Loading historical data...
Loading historical data...
Loading historical data...

STARLINK-4720 Visibility forecast

Observer location: undefined°, undefined°

Span
Click to sort rows by Start time (UTC) header in descending order
Start Az.
Max El. time (UTC)
Max El. Az.
Max El.
End time (UTC)
End Az.
5 mins2025-07-02 10:01:11.006Z168.514° S2025-07-02 10:04:11.006Z118.323° SE17.121°2025-07-02 10:06:11.006Z86.953° E
6 mins2025-07-02 11:40:11.006Z247.904° W2025-07-02 11:43:11.006Z357.217° N39.4°2025-07-02 11:46:11.006Z42.518° NE
4 mins2025-07-02 13:21:11.006Z315.395° NNW2025-07-02 13:23:11.006Z351.069° N16.183°2025-07-02 13:25:11.006Z21.903° NNE
5 mins2025-07-02 16:42:11.006Z347.89° N2025-07-02 16:44:11.006Z31.371° NE22.563°2025-07-02 16:47:11.006Z80.84° E
6 mins2025-07-02 18:21:11.006Z299.105° NW2025-07-02 18:23:11.006Z255.768° W40.789°2025-07-02 18:27:11.006Z143.329° SSE
|